This demonstration page uses our WeatherBlox Daily Observations layout. Learn more.

Hourly Observations for March 18, 2016

Temp ( °F °C ) Dew Point ( °F °C ) Humidity (%) Winds ( mph kmh ) Pressure ( in mb ) Visibility ( mi km ) Precip ( " mm )
12:15 am 00:15 Partly Cloudy 50 10 34 1 54 54 WNW 7 11 29.91 1013 10 16.09344 0 0
12:35 am 00:35 Clear 48 9 34 1 58 58 W 7 11 29.91 1013 10 16.09344 0 0
12:55 am 00:55 Clear 46 8 34 1 62 62 W 6 9 29.94 1014 10 16.09344 0 0
1:15 am 01:15 Clear 50 10 32 0 50 50 SW 5 7 29.91 1013 10 16.09344 0 0
1:35 am 01:35 Clear 46 8 34 1 62 62 W 6 9 29.97 1015 10 16.09344 0 0
1:55 am 01:55 Clear 45 7 34 1 66 66 W 6 9 29.97 1015 10 16.09344 0 0
2:15 am 02:15 Clear 43 6 36 2 76 76 W 6 9 29.97 1015 10 16.09344 0 0
2:35 am 02:35 Partly Cloudy 43 6 36 2 76 76 W 6 9 29.97 1015 10 16.09344 0 0
2:55 am 02:55 Partly Cloudy 43 6 34 1 71 71 W 9 15 29.94 1014 10 16.09344 0 0
3:15 am 03:15 Clear 46 8 34 1 62 62 W 9 15 29.94 1014 10 16.09344 0 0
3:35 am 03:35 Clear 46 8 34 1 62 62 WNW 8 13 29.94 1014 10 16.09344 0 0
3:55 am 03:55 Clear 46 8 34 1 62 62 WNW 9 15 29.94 1014 10 16.09344 0 0
4:15 am 04:15 Clear 46 8 34 1 62 62 NW 10 17 29.94 1014 10 16.09344 0 0
4:35 am 04:35 Clear 46 8 32 0 57 57 NW 10 17 29.94 1014 10 16.09344 0 0
4:55 am 04:55 Clear 46 8 32 0 57 57 NW 10 17 29.94 1014 10 16.09344 0 0
5:15 am 05:15 Clear 48 9 32 0 54 54 NW 10 17 29.91 1013 10 16.09344 0 0
5:35 am 05:35 Clear 50 10 32 0 50 50 WNW 9 15 29.91 1013 10 16.09344 0 0
5:55 am 05:55 Clear 46 8 32 0 57 57 W 3 6 29.94 1014 10 16.09344 0 0
6:15 am 06:15 Clear 45 7 32 0 61 61 Calm 29.94 1014 10 16.09344 0 0
6:35 am 06:35 Clear 46 8 32 0 57 57 Calm 29.94 1014 10 16.09344 0 0
6:55 am 06:55 Clear 45 7 32 0 61 61 Calm 29.97 1015 10 16.09344 0 0
7:15 am 07:15 Sunny 43 6 32 0 66 66 Calm 29.97 1015 10 16.09344 0 0
7:35 am 07:35 Sunny 41 5 32 0 70 70 Calm 29.97 1015 10 16.09344 0 0
7:55 am 07:55 Sunny 43 6 32 0 66 66 Calm 29.97 1015 10 16.09344 0 0
8:15 am 08:15 Sunny 45 7 32 0 61 61 Calm 29.97 1015 10 16.09344 0 0
8:35 am 08:35 Sunny 48 9 36 2 62 62 S 3 6 29.94 1014 10 16.09344 0 0
8:55 am 08:55 Sunny 50 10 34 1 54 54 Calm 29.94 1014 10 16.09344 0 0
9:15 am 09:15 Sunny 52 11 34 1 50 50 SSW 3 6 29.94 1014 10 16.09344 0 0
9:35 am 09:35 Sunny 54 12 34 1 47 47 WNW 8 13 29.94 1014 10 16.09344 0 0
9:55 am 09:55 Sunny 55 13 34 1 44 44 W 10 17 29.97 1015 10 16.09344 0 0
10:15 am 10:15 Sunny 57 14 32 0 39 39 W 7 11 29.94 1014 10 16.09344 0 0
10:35 am 10:35 Sunny 59 15 34 1 39 39 W 13 20 29.94 1014 10 16.09344 0 0
10:55 am 10:55 Sunny 59 15 34 1 39 39 W 9 15 29.94 1014 10 16.09344 0 0
11:15 am 11:15 Sunny 61 16 34 1 36 36 WNW 15 24 29.94 1014 10 16.09344 0 0
11:35 am 11:35 Sunny 59 15 32 0 36 36 W 22 35 29.94 1014 10 16.09344 0 0
11:55 am 11:55 Sunny 61 16 32 0 34 34 WNW 24 39 29.94 1014 10 16.09344 0 0
12:15 pm 12:15 Sunny 63 17 32 0 32 32 W 21 33 29.94 1014 10 16.09344 0 0
12:35 pm 12:35 Sunny 63 17 32 0 32 32 NW 24 39 29.94 1014 10 16.09344 0 0
12:55 pm 12:55 Partly Cloudy 63 17 32 0 32 32 WNW 23 37 29.94 1014 10 16.09344 0 0
1:15 pm 13:15 Partly Cloudy 64 18 32 0 30 30 WNW 21 33 29.94 1014 10 16.09344 0 0
1:35 pm 13:35 Partly Cloudy 64 18 32 0 30 30 NW 24 39 29.94 1014 10 16.09344 0 0
1:55 pm 13:55 Sunny 64 18 32 0 30 30 WNW 23 37 29.94 1014 10 16.09344 0 0
2:35 pm 14:35 Mostly Cloudy 64 18 32 0 30 30 WNW 25 41 29.91 1013 10 16.09344 0 0
2:55 pm 14:55 Mostly Cloudy 64 18 32 0 30 30 WNW 21 33 29.91 1013 10 16.09344 0 0
3:15 pm 15:15 Partly Cloudy 64 18 30 -1 28 28 W 26 43 29.91 1013 10 16.09344 0 0
3:35 pm 15:35 Partly Cloudy 63 17 30 -1 30 30 NW 20 31 29.91 1013 10 16.09344 0 0
3:55 pm 15:55 Mostly Cloudy 64 18 30 -1 28 28 WNW 21 33 29.88 1012 10 16.09344 0 0
4:15 pm 16:15 Partly Cloudy 64 18 30 -1 28 28 WNW 24 39 29.88 1012 10 16.09344 0 0
4:35 pm 16:35 Mostly Cloudy 64 18 30 -1 28 28 WNW 28 44 29.88 1012 10 16.09344 0 0
4:55 pm 16:55 Partly Cloudy 64 18 30 -1 28 28 W 23 37 29.88 1012 10 16.09344 0 0
5:15 pm 17:15 Sunny 64 18 30 -1 28 28 W 24 39 29.88 1012 10 16.09344 0 0
5:35 pm 17:35 Sunny 63 17 30 -1 30 30 W 21 33 29.88 1012 10 16.09344 0 0
5:55 pm 17:55 Sunny 63 17 30 -1 30 30 W 17 28 29.88 1012 10 16.09344 0 0
6:15 pm 18:15 Sunny 63 17 32 0 32 32 WNW 15 24 29.91 1013 10 16.09344 0 0
6:35 pm 18:35 Sunny 63 17 30 -1 30 30 W 14 22 29.91 1013 10 16.09344 0 0
6:55 pm 18:55 Sunny 61 16 30 -1 31 31 W 14 22 29.91 1013 10 16.09344 0 0
7:15 pm 19:15 Sunny 59 15 30 -1 34 34 W 10 17 29.91 1013 10 16.09344 0 0
7:35 pm 19:35 Clear 57 14 30 -1 36 36 WNW 8 13 29.91 1013 10 16.09344 0 0
7:55 pm 19:55 Clear 55 13 30 -1 38 38 W 5 7 29.91 1013 10 16.09344 0 0
8:15 pm 20:15 Clear 55 13 30 -1 38 38 Calm 29.91 1013 10 16.09344 0 0
8:35 pm 20:35 Clear 55 13 28 -2 36 36 W 5 7 29.94 1014 10 16.09344 0 0
8:55 pm 20:55 Clear 54 12 28 -2 38 38 W 5 7 29.94 1014 10 16.09344 0 0
9:15 pm 21:15 Clear 54 12 28 -2 38 38 SW 5 7 29.94 1014 10 16.09344 0 0
9:35 pm 21:35 Clear 52 11 28 -2 41 41 SSW 6 9 29.94 1014 10 16.09344 0 0
9:55 pm 21:55 Clear 48 9 32 0 54 54 SW 3 6 29.94 1014 10 16.09344 0 0
10:15 pm 22:15 Clear 46 8 32 0 57 57 WSW 3 6 29.97 1015 10 16.09344 0 0
10:35 pm 22:35 Clear 50 10 30 -1 47 47 SW 6 9 29.94 1014 10 16.09344 0 0
10:55 pm 22:55 Clear 46 8 32 0 57 57 W 6 9 30 1016 10 16.09344 0 0
11:15 pm 23:15 Clear 50 10 32 0 50 50 WNW 12 19 29.97 1015 10 16.09344 0 0
11:35 pm 23:35 Clear 54 12 30 -1 41 41 NW 14 22 29.97 1015 10 16.09344 0 0
11:55 pm 23:55 Clear 52 11 30 -1 44 44 WNW 8 13 29.97 1015 10 16.09344 0 0

Powered by AerisWeather